Hauptseite
METAR-TAF:

METAR-TAF

Flughäfen :

Laupheim, Deutschland

Flugplatz Laupheim

Breite: 48-13N, Länge: 009-55E, Höhe: 538 m

Beobachtung

Neuester Wetterbericht von vor 1 Stunde und 16 Minuten, um 02:20 UTC
Wind 7 kt aus Süd/Südwest
Temperatur 4°C
Luftfeuchtigkeit 93%
Luftdruck 988 hPa
Sichtweite 10 km oder mehr
Durchbrochene Bewölkung in der Höhe von 4600 ft
Leichtregen

METAR: ETHL 110220Z 20007KT 9999 -RA BKN046 04/03 Q0988 BLU

Zeit: 04:36 (03:36 UTC)


TAF: fehlend

Wetterbeobachtungen und Prognosen von mehr als 4000 Flughäfen (METAR und TAF Bericht).

Die verfügbaren Stationen werden durch gelbe und rote Markierungen auf der Karte dargestellt.

Führen Sie die Maus auf sie, um den Namen der Station zu sehen.

Darauf klicken, um die Beobachtung von Wetterbeobachtungen und Prognosen zu sehen.

Um die Karte zu ändern : klicken Sie auf den grünen Tasten mit einem schwarzen Kreuz Zum Vergrößern, auf den grünen Button mit einem Gedankenstrich zu verkleinern, oder auf die grünen Pfeile für benachbarte Karten.


METAR-TAF: